Time,TemperatureF,DewpointF,PressureIn,WindDirection,WindDirectionDegrees,WindSpeedMPH,WindSpeedGustMPH,Humidity,HourlyPrecipIn,Conditions,Clouds,dailyrainin,SoftwareType,DateUTC
2013-01-22 00:02:00,52.5,0.0,30.14,North,0,0.9,1.2,0,0.00,,,-99.99,,2013-01-22 08:02:00,
2013-01-22 00:07:00,53.1,0.0,30.17,North,0,1.3,1.8,0,0.00,,,-99.99,,2013-01-22 08:07:00,
2013-01-22 00:12:00,51.8,0.0,30.17,North,0,0.8,1.2,0,0.00,,,-99.99,,2013-01-22 08:12:00,
2013-01-22 00:17:00,49.7,0.0,30.17,North,0,1.4,1.8,0,0.00,,,-99.99,,2013-01-22 08:17:00,
2013-01-22 00:22:00,51.4,0.0,30.14,North,0,0.9,1.2,0,0.00,,,-99.99,,2013-01-22 08:22:00,
2013-01-22 00:27:00,49.7,0.0,30.14,North,0,0.0,0.0,0,0.00,,,-99.99,,2013-01-22 08:27:00,
2013-01-22 00:32:00,51.0,0.0,30.14,NW,315,0.6,1.5,0,0.00,,,-99.99,,2013-01-22 08:32:00,
2013-01-22 00:37:00,51.4,0.0,30.14,North,0,0.3,0.6,0,0.00,,,-99.99,,2013-01-22 08:37:00,
2013-01-22 00:42:00,51.6,0.0,30.14,North,0,0.0,0.0,0,0.00,,,-99.99,,2013-01-22 08:42:00,
2013-01-22 00:47:00,53.1,0.0,30.14,NE,45,1.6,1.8,0,0.00,,,-99.99,,2013-01-22 08:47:00,
2013-01-22 00:52:00,51.0,0.0,30.17,NE,45,1.1,1.5,0,0.00,,,-99.99,,2013-01-22 08:52:00,
2013-01-22 00:57:00,50.6,0.0,30.14,North,0,0.6,1.2,0,0.00,,,-99.99,,2013-01-22 08:57:00,
2013-01-22 01:02:00,53.6,0.0,30.14,NE,45,1.6,2.1,0,0.00,,,-99.99,,2013-01-22 09:02:00,
2013-01-22 01:07:00,52.7,0.0,30.14,NE,45,1.5,2.1,0,0.00,,,-99.99,,2013-01-22 09:07:00,
2013-01-22 01:12:00,51.6,0.0,30.14,North,0,0.8,1.2,0,0.00,,,-99.99,,2013-01-22 09:12:00,
2013-01-22 01:17:00,50.1,0.0,30.17,East,90,1.3,3.0,0,0.00,,,-99.99,,2013-01-22 09:17:00,
2013-01-22 01:22:00,50.1,0.0,30.14,NE,45,1.6,2.4,0,0.00,,,-99.99,,2013-01-22 09:22:00,
2013-01-22 01:27:00,51.0,0.0,30.17,NE,45,2.3,3.6,0,0.00,,,-99.99,,2013-01-22 09:27:00,
2013-01-22 01:32:00,50.4,0.0,30.14,North,0,2.1,3.0,0,0.00,,,-99.99,,2013-01-22 09:32:00,
2013-01-22 01:37:00,52.5,0.0,30.14,NE,45,2.6,3.6,0,0.00,,,-99.99,,2013-01-22 09:37:00,
2013-01-22 01:42:00,52.5,0.0,30.17,NE,45,3.3,5.4,0,0.00,,,-99.99,,2013-01-22 09:42:00,
2013-01-22 01:47:00,52.5,0.0,30.17,NE,45,2.5,3.9,0,0.00,,,-99.99,,2013-01-22 09:47:00,
2013-01-22 01:52:00,54.0,0.0,30.17,NE,45,3.2,4.8,0,0.00,,,-99.99,,2013-01-22 09:52:00,
2013-01-22 01:57:00,54.0,0.0,30.17,NE,45,3.1,5.4,0,0.00,,,-99.99,,2013-01-22 09:57:00,
2013-01-22 02:02:00,53.6,0.0,30.14,NE,45,3.3,4.5,0,0.00,,,-99.99,,2013-01-22 10:02:00,
2013-01-22 02:07:00,54.6,0.0,30.14,North,0,3.3,4.2,0,0.00,,,-99.99,,2013-01-22 10:07:00,
2013-01-22 02:12:00,53.8,0.0,30.14,North,0,2.8,3.6,0,0.00,,,-99.99,,2013-01-22 10:12:00,
2013-01-22 02:17:00,50.8,0.0,30.14,North,0,2.2,3.0,0,0.00,,,-99.99,,2013-01-22 10:17:00,
2013-01-22 02:22:00,50.6,0.0,30.11,North,0,1.8,2.7,0,0.00,,,-99.99,,2013-01-22 10:22:00,
2013-01-22 02:27:00,50.1,0.0,30.14,North,0,1.9,2.4,0,0.00,,,-99.99,,2013-01-22 10:27:00,
2013-01-22 02:32:00,51.4,0.0,30.14,North,0,2.6,3.0,0,0.00,,,-99.99,,2013-01-22 10:32:00,
2013-01-22 02:37:00,52.1,0.0,30.14,North,0,1.7,2.1,0,0.00,,,-99.99,,2013-01-22 10:37:00,
2013-01-22 02:42:00,53.1,0.0,30.17,SW,225,1.3,2.1,0,0.00,,,-99.99,,2013-01-22 10:42:00,
2013-01-22 02:47:00,51.6,0.0,30.14,NW,315,0.6,0.9,0,0.00,,,-99.99,,2013-01-22 10:47:00,
2013-01-22 02:52:00,52.3,0.0,30.14,NW,315,0.0,0.0,0,0.00,,,-99.99,,2013-01-22 10:52:00,
2013-01-22 02:57:00,51.2,0.0,30.14,East,90,0.0,0.0,0,0.00,,,-99.99,,2013-01-22 10:57:00,
2013-01-22 03:02:00,51.2,0.0,30.14,East,90,0.0,0.0,0,0.00,,,-99.99,,2013-01-22 11:02:00,
2013-01-22 03:07:00,51.4,0.0,30.17,East,90,0.0,0.0,0,0.00,,,-99.99,,2013-01-22 11:07:00,
2013-01-22 03:12:00,52.3,0.0,30.17,NE,45,1.7,2.1,0,0.00,,,-99.99,,2013-01-22 11:12:00,
2013-01-22 03:17:00,48.9,0.0,30.14,NE,45,1.2,1.8,0,0.00,,,-99.99,,2013-01-22 11:17:00,
2013-01-22 03:22:00,49.7,0.0,30.14,NE,45,1.5,1.8,0,0.00,,,-99.99,,2013-01-22 11:22:00,
2013-01-22 03:27:00,49.9,0.0,30.11,NE,45,2.5,3.3,0,0.00,,,-99.99,,2013-01-22 11:27:00,
2013-01-22 03:32:00,50.6,0.0,30.11,NE,45,2.1,3.3,0,0.00,,,-99.99,,2013-01-22 11:32:00,
2013-01-22 03:37:00,50.8,0.0,30.14,North,0,2.6,3.3,0,0.00,,,-99.99,,2013-01-22 11:37:00,
2013-01-22 03:42:00,50.6,0.0,30.14,North,0,3.4,5.7,0,0.00,,,-99.99,,2013-01-22 11:42:00,
2013-01-22 03:47:00,50.8,0.0,30.14,North,0,2.6,7.2,0,0.00,,,-99.99,,2013-01-22 11:47:00,
2013-01-22 03:52:00,53.1,0.0,30.14,North,0,2.7,3.9,0,0.00,,,-99.99,,2013-01-22 11:52:00,
2013-01-22 03:57:00,52.5,0.0,30.14,North,0,3.3,5.1,0,0.00,,,-99.99,,2013-01-22 11:57:00,
2013-01-22 04:02:00,49.3,0.0,30.17,North,0,3.2,5.1,0,0.00,,,-99.99,,2013-01-22 12:02:00,
2013-01-22 04:07:00,51.2,0.0,30.14,North,0,3.0,3.6,0,0.00,,,-99.99,,2013-01-22 12:07:00,
2013-01-22 04:12:00,48.8,0.0,30.14,North,0,2.9,4.8,0,0.00,,,-99.99,,2013-01-22 12:12:00,
2013-01-22 04:17:00,48.6,0.0,30.14,North,0,3.4,3.9,0,0.00,,,-99.99,,2013-01-22 12:17:00,
2013-01-22 04:22:00,49.5,0.0,30.14,North,0,3.0,4.5,0,0.00,,,-99.99,,2013-01-22 12:22:00,
2013-01-22 04:27:00,49.3,0.0,30.14,North,0,3.1,3.6,0,0.00,,,-99.99,,2013-01-22 12:27:00,
2013-01-22 04:32:00,51.2,0.0,30.14,North,0,2.9,8.7,0,0.00,,,-99.99,,2013-01-22 12:32:00,
2013-01-22 04:37:00,50.1,0.0,30.14,North,0,2.9,3.6,0,0.00,,,-99.99,,2013-01-22 12:37:00,
2013-01-22 04:42:00,50.8,0.0,30.14,North,0,3.2,3.6,0,0.00,,,-99.99,,2013-01-22 12:42:00,
2013-01-22 04:47:00,51.9,0.0,30.14,North,0,3.2,3.9,0,0.00,,,-99.99,,2013-01-22 12:47:00,
2013-01-22 04:53:00,50.8,0.0,30.11,North,0,2.5,3.0,0,0.00,,,-99.99,,2013-01-22 12:53:00,
2013-01-22 04:58:00,51.0,0.0,30.14,North,0,2.4,3.0,0,0.00,,,-99.99,,2013-01-22 12:58:00,
2013-01-22 05:03:00,50.4,0.0,30.20,North,0,2.8,3.6,0,0.00,,,-99.99,,2013-01-22 13:03:00,
2013-01-22 05:08:00,50.6,0.0,30.17,NE,45,2.9,3.3,0,0.00,,,-99.99,,2013-01-22 13:08:00,
2013-01-22 05:13:00,51.8,0.0,30.11,NE,45,2.5,3.3,0,0.00,,,-99.99,,2013-01-22 13:13:00,
2013-01-22 05:19:00,49.9,0.0,30.14,North,0,3.4,3.9,0,0.00,,,-99.99,,2013-01-22 13:19:00,
2013-01-22 05:24:00,51.8,0.0,30.14,North,0,2.9,3.6,0,0.00,,,-99.99,,2013-01-22 13:24:00,
2013-01-22 05:29:00,51.6,0.0,30.14,North,0,3.3,6.0,0,0.00,,,-99.99,,2013-01-22 13:29:00,
2013-01-22 05:34:00,51.0,0.0,30.14,North,0,3.3,3.9,0,0.00,,,-99.99,,2013-01-22 13:34:00,
2013-01-22 05:39:00,51.8,0.0,30.17,North,0,1.8,2.4,0,0.00,,,-99.99,,2013-01-22 13:39:00,
2013-01-22 05:44:00,51.0,0.0,30.14,NE,45,2.7,3.6,0,0.00,,,-99.99,,2013-01-22 13:44:00,
2013-01-22 05:49:00,51.0,0.0,30.17,NE,45,2.9,3.3,0,0.00,,,-99.99,,2013-01-22 13:49:00,
2013-01-22 05:54:00,51.8,0.0,30.14,NE,45,2.9,4.5,0,0.00,,,-99.99,,2013-01-22 13:54:00,
2013-01-22 05:59:00,50.4,0.0,30.14,NE,45,2.5,4.5,0,0.00,,,-99.99,,2013-01-22 13:59:00,
2013-01-22 06:04:00,52.3,0.0,30.14,NE,45,3.4,4.2,0,0.00,,,-99.99,,2013-01-22 14:04:00,
2013-01-22 06:09:00,51.2,0.0,30.17,NE,45,2.8,4.2,0,0.00,,,-99.99,,2013-01-22 14:09:00,
2013-01-22 06:14:00,51.4,0.0,30.14,North,0,3.4,4.2,0,0.00,,,-99.99,,2013-01-22 14:14:00,
2013-01-22 06:19:00,50.4,0.0,30.17,North,0,3.4,3.9,0,0.00,,,-99.99,,2013-01-22 14:19:00,
2013-01-22 06:24:00,50.4,0.0,30.17,North,0,3.6,4.2,0,0.00,,,-99.99,,2013-01-22 14:24:00,
2013-01-22 06:29:00,51.0,0.0,30.14,NE,45,2.7,5.1,0,0.00,,,-99.99,,2013-01-22 14:29:00,
2013-01-22 06:34:00,50.6,0.0,30.20,NE,45,3.2,4.2,0,0.00,,,-99.99,,2013-01-22 14:34:00,
2013-01-22 06:39:00,51.8,0.0,30.17,North,0,3.6,4.2,0,0.00,,,-99.99,,2013-01-22 14:39:00,
2013-01-22 06:44:00,50.3,0.0,30.17,North,0,3.1,3.3,0,0.00,,,-99.99,,2013-01-22 14:44:00,
2013-01-22 06:49:00,48.9,0.0,30.17,NE,45,2.7,3.3,0,0.00,,,-99.99,,2013-01-22 14:49:00,
2013-01-22 06:54:00,50.6,0.0,30.17,NE,45,2.8,3.9,0,0.00,,,-99.99,,2013-01-22 14:54:00,
2013-01-22 06:59:00,51.9,0.0,30.14,NE,45,3.7,4.5,0,0.00,,,-99.99,,2013-01-22 14:59:00,
2013-01-22 07:04:00,52.7,0.0,30.14,NE,45,2.1,3.9,0,0.00,,,-99.99,,2013-01-22 15:04:00,
2013-01-22 07:09:00,51.8,0.0,30.17,North,0,2.3,3.3,0,0.00,,,-99.99,,2013-01-22 15:09:00,
2013-01-22 07:14:00,53.6,0.0,30.14,North,0,3.7,4.5,0,0.00,,,-99.99,,2013-01-22 15:14:00,
2013-01-22 07:19:00,53.8,0.0,30.17,North,0,3.4,4.2,0,0.00,,,-99.99,,2013-01-22 15:19:00,
2013-01-22 07:24:00,54.9,0.0,30.14,North,0,2.8,3.6,0,0.00,,,-99.99,,2013-01-22 15:24:00,
2013-01-22 07:29:00,54.9,0.0,30.17,North,0,3.9,5.4,0,0.00,,,-99.99,,2013-01-22 15:29:00,
2013-01-22 07:34:00,54.7,0.0,30.17,NE,45,2.1,3.6,0,0.00,,,-99.99,,2013-01-22 15:34:00,
2013-01-22 07:39:00,55.5,0.0,30.14,NE,45,2.6,4.2,0,0.00,,,-99.99,,2013-01-22 15:39:00,
2013-01-22 07:44:00,55.7,0.0,30.14,NE,45,2.1,3.0,0,0.00,,,-99.99,,2013-01-22 15:44:00,
2013-01-22 07:49:00,55.9,0.0,30.14,NE,45,2.1,3.6,0,0.00,,,-99.99,,2013-01-22 15:49:00,
2013-01-22 07:54:00,56.6,0.0,30.17,NE,45,2.2,3.3,0,0.00,,,-99.99,,2013-01-22 15:54:00,
2013-01-22 07:59:00,56.8,0.0,30.17,East,90,2.4,5.1,0,0.00,,,-99.99,,2013-01-22 15:59:00,
2013-01-22 08:04:00,57.2,0.0,30.14,NE,45,2.1,3.3,0,0.00,,,-99.99,,2013-01-22 16:04:00,
2013-01-22 08:09:00,58.1,0.0,30.14,NE,45,3.5,5.7,0,0.00,,,-99.99,,2013-01-22 16:09:00,
2013-01-22 08:14:00,58.3,0.0,30.20,East,90,2.4,3.6,0,0.00,,,-99.99,,2013-01-22 16:14:00,
2013-01-22 08:19:00,58.3,0.0,30.17,East,90,2.1,3.3,0,0.00,,,-99.99,,2013-01-22 16:19:00,
2013-01-22 08:24:00,58.3,0.0,30.14,East,90,3.0,3.9,0,0.00,,,-99.99,,2013-01-22 16:24:00,
2013-01-22 08:29:00,58.6,0.0,30.17,NE,45,1.9,3.6,0,0.00,,,-99.99,,2013-01-22 16:29:00,
2013-01-22 08:34:00,60.3,0.0,30.14,East,90,1.3,2.7,0,0.00,,,-99.99,,2013-01-22 16:34:00,
2013-01-22 08:39:00,58.6,0.0,30.17,NE,45,3.2,5.1,0,0.00,,,-99.99,,2013-01-22 16:39:00,
2013-01-22 08:44:00,60.3,0.0,30.17,NE,45,4.0,6.3,0,0.00,,,-99.99,,2013-01-22 16:44:00,
2013-01-22 08:49:00,60.9,0.0,30.17,East,90,2.1,3.3,0,0.00,,,-99.99,,2013-01-22 16:49:00,
2013-01-22 08:54:00,60.7,0.0,30.17,NE,45,2.4,3.6,0,0.00,,,-99.99,,2013-01-22 16:54:00,
2013-01-22 08:59:00,61.0,0.0,30.17,NE,45,1.4,2.1,0,0.00,,,-99.99,,2013-01-22 16:59:00,
2013-01-22 09:04:00,62.3,0.0,30.17,East,90,1.2,2.1,0,0.00,,,-99.99,,2013-01-22 17:04:00,
2013-01-22 09:09:00,61.8,0.0,30.14,NE,45,1.3,2.4,0,0.00,,,-99.99,,2013-01-22 17:09:00,
2013-01-22 09:14:00,63.1,0.0,30.14,East,90,1.5,2.4,0,0.00,,,-99.99,,2013-01-22 17:14:00,
2013-01-22 09:19:00,63.4,0.0,30.20,East,90,2.5,4.2,0,0.00,,,-99.99,,2013-01-22 17:19:00,
2013-01-22 09:24:00,64.0,0.0,30.17,NE,45,0.8,1.8,0,0.00,,,-99.99,,2013-01-22 17:24:00,
2013-01-22 09:29:00,64.0,0.0,30.17,NE,45,0.8,1.2,0,0.00,,,-99.99,,2013-01-22 17:29:00,
2013-01-22 09:34:00,64.9,0.0,30.17,NE,45,2.5,3.9,0,0.00,,,-99.99,,2013-01-22 17:34:00,
2013-01-22 09:39:00,66.8,0.0,30.20,East,90,1.5,5.7,0,0.00,,,-99.99,,2013-01-22 17:39:00,
2013-01-22 09:44:00,65.5,0.0,30.17,South,180,0.4,0.9,0,0.00,,,-99.99,,2013-01-22 17:44:00,
2013-01-22 09:49:00,66.6,0.0,30.17,East,90,1.1,2.1,0,0.00,,,-99.99,,2013-01-22 17:49:00,
2013-01-22 09:54:00,66.6,0.0,30.20,SE,135,0.9,1.8,0,0.00,,,-99.99,,2013-01-22 17:54:00,
2013-01-22 09:59:00,67.2,0.0,30.17,South,180,0.6,1.5,0,0.00,,,-99.99,,2013-01-22 17:59:00,
2013-01-22 10:04:00,67.7,0.0,30.17,SE,135,0.7,1.5,0,0.00,,,-99.99,,2013-01-22 18:04:00,
2013-01-22 10:09:00,67.7,0.0,30.17,West,270,2.9,3.9,0,0.00,,,-99.99,,2013-01-22 18:09:00,
2013-01-22 10:14:00,66.8,0.0,30.17,West,270,3.0,3.9,0,0.00,,,-99.99,,2013-01-22 18:14:00,
2013-01-22 10:19:00,66.4,0.0,30.17,West,270,2.9,4.2,0,0.00,,,-99.99,,2013-01-22 18:19:00,
2013-01-22 10:24:00,68.5,0.0,30.20,SW,225,2.5,3.0,0,0.00,,,-99.99,,2013-01-22 18:24:00,
2013-01-22 10:29:00,68.5,0.0,30.17,SW,225,2.6,3.9,0,0.00,,,-99.99,,2013-01-22 18:29:00,
2013-01-22 10:34:00,68.6,0.0,30.17,SW,225,3.3,5.4,0,0.00,,,-99.99,,2013-01-22 18:34:00,
2013-01-22 10:39:00,68.3,0.0,30.17,West,270,3.3,4.8,0,0.00,,,-99.99,,2013-01-22 18:39:00,
2013-01-22 10:44:00,69.8,0.0,30.17,West,270,2.7,3.3,0,0.00,,,-99.99,,2013-01-22 18:44:00,
2013-01-22 10:49:00,68.6,0.0,30.17,South,180,1.2,2.1,0,0.00,,,-99.99,,2013-01-22 18:49:00,
2013-01-22 10:54:00,70.9,0.0,30.17,West,270,1.2,1.8,0,0.00,,,-99.99,,2013-01-22 18:54:00,
2013-01-22 10:59:00,70.0,0.0,30.17,East,90,1.1,1.8,0,0.00,,,-99.99,,2013-01-22 18:59:00,
2013-01-22 11:04:00,70.3,0.0,30.14,NW,315,1.7,3.3,0,0.00,,,-99.99,,2013-01-22 19:04:00,
2013-01-22 11:09:00,72.9,0.0,30.14,NE,45,1.2,1.8,0,0.00,,,-99.99,,2013-01-22 19:09:00,
2013-01-22 11:14:00,72.4,0.0,30.14,NE,45,1.7,2.7,0,0.00,,,-99.99,,2013-01-22 19:14:00,
2013-01-22 11:19:00,73.3,0.0,30.11,NE,45,2.5,3.9,0,0.00,,,-99.99,,2013-01-22 19:19:00,
2013-01-22 11:24:00,72.9,0.0,30.11,North,0,4.1,6.0,0,0.00,,,-99.99,,2013-01-22 19:24:00,
2013-01-22 11:29:00,73.7,0.0,30.14,NE,45,2.0,3.3,0,0.00,,,-99.99,,2013-01-22 19:29:00,
2013-01-22 11:34:00,72.9,0.0,30.14,North,0,1.8,3.0,0,0.00,,,-99.99,,2013-01-22 19:34:00,
2013-01-22 11:39:00,75.0,0.0,30.11,North,0,2.4,4.8,0,0.00,,,-99.99,,2013-01-22 19:39:00,
2013-01-22 11:44:00,75.0,0.0,30.11,NW,315,2.0,3.6,0,0.00,,,-99.99,,2013-01-22 19:44:00,
2013-01-22 11:49:00,75.4,0.0,30.11,South,180,0.6,1.5,0,0.00,,,-99.99,,2013-01-22 19:49:00,
2013-01-22 11:54:00,75.8,0.0,30.11,North,0,3.5,4.5,0,0.00,,,-99.99,,2013-01-22 19:54:00,
2013-01-22 11:59:00,75.2,0.0,30.08,SE,135,1.5,1.8,0,0.00,,,-99.99,,2013-01-22 19:59:00,
2013-01-22 12:04:00,76.4,0.0,30.11,South,180,0.9,2.1,0,0.00,,,-99.99,,2013-01-22 20:04:00,
2013-01-22 12:09:00,76.9,0.0,30.11,South,180,2.7,4.5,0,0.00,,,-99.99,,2013-01-22 20:09:00,
2013-01-22 12:14:00,77.7,0.0,30.11,West,270,4.6,6.0,0,0.00,,,-99.99,,2013-01-22 20:14:00,
2013-01-22 12:19:00,76.4,0.0,30.08,SW,225,5.1,6.6,0,0.00,,,-99.99,,2013-01-22 20:19:00,
2013-01-22 12:24:00,77.7,0.0,30.08,West,270,4.8,6.3,0,0.00,,,-99.99,,2013-01-22 20:24:00,
2013-01-22 12:29:00,76.0,0.0,30.08,West,270,4.7,6.9,0,0.00,,,-99.99,,2013-01-22 20:29:00,
2013-01-22 12:34:00,76.2,0.0,30.11,West,270,4.1,6.0,0,0.00,,,-99.99,,2013-01-22 20:34:00,
2013-01-22 12:39:00,77.5,0.0,30.11,West,270,7.2,9.3,0,0.00,,,-99.99,,2013-01-22 20:39:00,
2013-01-22 12:44:00,77.5,0.0,30.08,West,270,7.8,9.3,0,0.00,,,-99.99,,2013-01-22 20:44:00,
2013-01-22 12:49:00,77.7,0.0,30.11,West,270,5.9,7.5,0,0.00,,,-99.99,,2013-01-22 20:49:00,
2013-01-22 12:54:00,77.5,0.0,30.11,West,270,5.2,8.7,0,0.00,,,-99.99,,2013-01-22 20:54:00,
2013-01-22 12:59:00,77.3,0.0,30.11,West,270,5.7,8.1,0,0.00,,,-99.99,,2013-01-22 20:59:00,
2013-01-22 13:04:00,77.5,0.0,30.11,West,270,5.8,7.5,0,0.00,,,-99.99,,2013-01-22 21:04:00,
2013-01-22 13:09:00,76.7,0.0,30.11,West,270,3.5,5.1,0,0.00,,,-99.99,,2013-01-22 21:09:00,
2013-01-22 13:14:00,77.3,0.0,30.08,West,270,4.6,6.6,0,0.00,,,-99.99,,2013-01-22 21:14:00,
2013-01-22 13:19:00,77.7,0.0,30.11,West,270,5.3,8.1,0,0.00,,,-99.99,,2013-01-22 21:19:00,
2013-01-22 13:24:00,76.9,0.0,30.08,West,270,5.5,7.8,0,0.00,,,-99.99,,2013-01-22 21:24:00,
2013-01-22 13:29:00,77.3,0.0,30.11,West,270,6.8,9.3,0,0.00,,,-99.99,,2013-01-22 21:29:00,
2013-01-22 13:31:00,77.9,0.0,30.11,West,270,6.6,8.7,0,0.00,,,-99.99,,2013-01-22 21:31:00,
2013-01-22 13:37:00,76.7,0.0,30.11,NW,315,4.0,6.6,0,0.00,,,-99.99,,2013-01-22 21:37:00,
2013-01-22 13:42:00,77.5,0.0,30.08,West,270,7.1,10.1,0,0.00,,,-99.99,,2013-01-22 21:42:00,
2013-01-22 13:47:00,77.1,0.0,30.08,West,270,5.9,9.0,0,0.00,,,-99.99,,2013-01-22 21:47:00,
2013-01-22 13:52:00,77.7,0.0,30.08,West,270,5.8,9.8,0,0.00,,,-99.99,,2013-01-22 21:52:00,
2013-01-22 13:57:00,75.4,0.0,30.11,West,270,6.1,9.0,0,0.00,,,-99.99,,2013-01-22 21:57:00,
2013-01-22 14:02:00,74.3,0.0,30.11,NW,315,7.7,10.7,0,0.00,,,-99.99,,2013-01-22 22:02:00,
2013-01-22 14:07:00,75.4,0.0,30.11,West,270,7.6,9.3,0,0.00,,,-99.99,,2013-01-22 22:07:00,
2013-01-22 14:12:00,75.0,0.0,30.11,NW,315,5.9,9.3,0,0.00,,,-99.99,,2013-01-22 22:12:00,
2013-01-22 14:17:00,73.1,0.0,30.11,NW,315,6.2,7.8,0,0.00,,,-99.99,,2013-01-22 22:17:00,
2013-01-22 14:23:00,72.8,0.0,30.11,NW,315,3.8,6.3,0,0.00,,,-99.99,,2013-01-22 22:23:00,
2013-01-22 14:28:00,73.9,0.0,30.11,NW,315,5.0,7.2,0,0.00,,,-99.99,,2013-01-22 22:28:00,
2013-01-22 14:33:00,71.8,0.0,30.14,NW,315,4.8,6.3,0,0.00,,,-99.99,,2013-01-22 22:33:00,
2013-01-22 14:38:00,73.9,0.0,30.11,West,270,3.0,6.6,0,0.00,,,-99.99,,2013-01-22 22:38:00,
2013-01-22 14:43:00,73.5,0.0,30.11,West,270,4.1,5.4,0,0.00,,,-99.99,,2013-01-22 22:43:00,
2013-01-22 14:48:00,75.0,0.0,30.11,West,270,5.0,8.1,0,0.00,,,-99.99,,2013-01-22 22:48:00,
2013-01-22 14:53:00,74.8,0.0,30.11,West,270,3.5,4.8,0,0.00,,,-99.99,,2013-01-22 22:53:00,
2013-01-22 14:58:00,74.6,0.0,30.08,NW,315,2.6,4.2,0,0.00,,,-99.99,,2013-01-22 22:58:00,
2013-01-22 15:03:00,75.0,0.0,30.14,West,270,3.9,5.1,0,0.00,,,-99.99,,2013-01-22 23:03:00,
2013-01-22 15:08:00,74.1,0.0,30.08,West,270,4.1,6.3,0,0.00,,,-99.99,,2013-01-22 23:08:00,
2013-01-22 15:13:00,72.8,0.0,30.11,West,270,3.7,5.1,0,0.00,,,-99.99,,2013-01-22 23:13:00,
2013-01-22 15:18:00,72.2,0.0,30.11,West,270,2.1,3.0,0,0.00,,,-99.99,,2013-01-22 23:18:00,
2013-01-22 15:23:00,73.3,0.0,30.11,West,270,2.9,3.3,0,0.00,,,-99.99,,2013-01-22 23:23:00,
2013-01-22 15:28:00,73.9,0.0,30.11,West,270,3.1,3.9,0,0.00,,,-99.99,,2013-01-22 23:28:00,
2013-01-22 15:33:00,72.6,0.0,30.11,West,270,2.2,3.3,0,0.00,,,-99.99,,2013-01-22 23:33:00,
2013-01-22 15:38:00,74.3,0.0,30.11,West,270,4.4,5.7,0,0.00,,,-99.99,,2013-01-22 23:38:00,
2013-01-22 15:43:00,74.1,0.0,30.11,West,270,4.5,5.7,0,0.00,,,-99.99,,2013-01-22 23:43:00,
2013-01-22 15:48:00,73.7,0.0,30.11,West,270,3.5,4.5,0,0.00,,,-99.99,,2013-01-22 23:48:00,
2013-01-22 15:53:00,72.4,0.0,30.14,NW,315,1.0,1.8,0,0.00,,,-99.99,,2013-01-22 23:53:00,
2013-01-22 15:58:00,72.6,0.0,30.14,West,270,2.3,3.3,0,0.00,,,-99.99,,2013-01-22 23:58:00,
2013-01-22 16:03:00,73.3,0.0,30.11,SW,225,3.7,4.8,0,0.00,,,-99.99,,2013-01-23 00:03:00,
2013-01-22 16:08:00,73.9,0.0,30.11,South,180,2.7,4.2,0,0.00,,,-99.99,,2013-01-23 00:08:00,
2013-01-22 16:13:00,72.9,0.0,30.14,SW,225,3.1,4.2,0,0.00,,,-99.99,,2013-01-23 00:13:00,
2013-01-22 16:18:00,72.2,0.0,30.14,South,180,2.2,3.6,0,0.00,,,-99.99,,2013-01-23 00:18:00,
2013-01-22 16:23:00,71.3,0.0,30.14,South,180,1.5,1.8,0,0.00,,,-99.99,,2013-01-23 00:23:00,
2013-01-22 16:28:00,70.9,0.0,30.11,South,180,1.6,2.1,0,0.00,,,-99.99,,2013-01-23 00:28:00,
2013-01-22 16:33:00,69.6,-28.8,30.14,South,180,0.3,0.9,1,0.00,,,-99.99,,2013-01-23 00:33:00,
2013-01-22 16:38:00,68.6,-28.4,30.14,East,90,0.0,0.0,1,0.00,,,-99.99,,2013-01-23 00:38:00,
2013-01-22 16:43:00,65.9,-18.6,30.14,NW,315,0.5,1.5,2,0.00,,,-99.99,,2013-01-23 00:43:00,
2013-01-22 16:48:00,66.0,-16.4,30.14,NW,315,0.0,0.0,3,0.00,,,-99.99,,2013-01-23 00:48:00,
2013-01-22 16:53:00,65.5,-18.9,30.11,South,180,2.4,4.5,2,0.00,,,-99.99,,2013-01-23 00:53:00,
2013-01-22 16:58:00,68.3,-13.8,30.17,South,180,4.5,6.0,3,0.00,,,-99.99,,2013-01-23 00:58:00,
2013-01-22 17:03:00,66.2,-6.1,30.14,South,180,3.1,6.9,5,0.00,,,-99.99,,2013-01-23 01:03:00,
2013-01-22 17:08:00,65.7,-1.8,30.14,South,180,2.5,5.4,6,0.00,,,-99.99,,2013-01-23 01:08:00,
2013-01-22 17:13:00,63.3,1.7,30.14,SE,135,1.7,5.4,8,0.00,,,-99.99,,2013-01-23 01:13:00,
2013-01-22 17:18:00,63.8,4.4,30.14,SE,135,2.2,3.9,9,0.00,,,-99.99,,2013-01-23 01:18:00,
2013-01-22 17:23:00,63.8,4.1,30.14,SE,135,1.0,1.5,9,0.00,,,-99.99,,2013-01-23 01:23:00,
2013-01-22 17:28:00,61.6,5.6,30.14,South,180,0.0,0.0,10,0.00,,,-99.99,,2013-01-23 01:28:00,
2013-01-22 17:33:00,60.7,6.7,30.11,South,180,0.1,0.6,11,0.00,,,-99.99,,2013-01-23 01:33:00,
2013-01-22 17:38:00,60.5,6.1,30.14,South,180,0.0,0.0,11,0.00,,,-99.99,,2013-01-23 01:38:00,
2013-01-22 17:43:00,59.7,8.9,30.14,East,90,0.1,0.3,13,0.00,,,-99.99,,2013-01-23 01:43:00,
2013-01-22 17:48:00,60.1,11.5,30.14,NE,45,0.0,0.0,14,0.00,,,-99.99,,2013-01-23 01:48:00,
2013-01-22 17:53:00,60.1,11.5,30.17,South,180,0.5,0.9,14,0.00,,,-99.99,,2013-01-23 01:53:00,
2013-01-22 17:58:00,60.7,10.6,30.14,South,180,0.3,0.6,13,0.00,,,-99.99,,2013-01-23 01:58:00,
2013-01-22 18:03:00,60.9,10.0,30.14,SE,135,0.7,1.5,13,0.00,,,-99.99,,2013-01-23 02:03:00,
2013-01-22 18:08:00,60.9,11.4,30.17,SE,135,1.0,1.5,14,0.00,,,-99.99,,2013-01-23 02:08:00,
2013-01-22 18:13:00,58.3,12.2,30.14,NE,45,0.4,0.6,15,0.00,,,-99.99,,2013-01-23 02:13:00,
2013-01-22 18:18:00,57.9,13.2,30.17,NE,45,0.3,0.9,16,0.00,,,-99.99,,2013-01-23 02:18:00,
2013-01-22 18:23:00,58.8,12.9,30.14,East,90,0.4,0.6,16,0.00,,,-99.99,,2013-01-23 02:23:00,
2013-01-22 18:28:00,58.8,12.9,30.17,East,90,0.2,0.6,16,0.00,,,-99.99,,2013-01-23 02:28:00,
2013-01-22 18:34:00,58.8,12.2,30.14,East,90,0.9,1.5,15,0.00,,,-99.99,,2013-01-23 02:34:00,
2013-01-22 18:39:00,58.3,13.1,30.14,NE,45,1.0,1.2,16,0.00,,,-99.99,,2013-01-23 02:39:00,
2013-01-22 18:44:00,57.9,13.9,30.14,NE,45,1.4,2.4,17,0.00,,,-99.99,,2013-01-23 02:44:00,
2013-01-22 18:49:00,57.5,12.1,30.14,NE,45,1.4,2.4,16,0.00,,,-99.99,,2013-01-23 02:49:00,
2013-01-22 18:54:00,58.5,10.3,30.14,NE,45,1.9,3.0,14,0.00,,,-99.99,,2013-01-23 02:54:00,
2013-01-22 18:59:00,57.7,8.5,30.14,North,0,1.1,3.0,13,0.00,,,-99.99,,2013-01-23 02:59:00,
2013-01-22 19:04:00,59.4,6.7,30.14,NE,45,1.7,3.6,11,0.00,,,-99.99,,2013-01-23 03:04:00,
2013-01-22 19:09:00,58.5,7.6,30.14,NE,45,1.5,2.4,12,0.00,,,-99.99,,2013-01-23 03:09:00,
2013-01-22 19:14:00,57.5,4.2,30.14,North,0,2.0,2.7,11,0.00,,,-99.99,,2013-01-23 03:14:00,
2013-01-22 19:19:00,57.9,4.6,30.14,NE,45,1.1,2.1,11,0.00,,,-99.99,,2013-01-23 03:19:00,
2013-01-22 19:24:00,58.8,0.5,30.17,NE,45,1.7,2.4,9,0.00,,,-99.99,,2013-01-23 03:24:00,
2013-01-22 19:29:00,59.2,-5.8,30.14,NE,45,1.1,1.8,6,0.00,,,-99.99,,2013-01-23 03:29:00,
2013-01-22 19:34:00,58.8,-23.3,30.14,NE,45,2.2,3.9,2,0.00,,,-99.99,,2013-01-23 03:34:00,
2013-01-22 19:39:00,61.0,-26.0,30.14,NE,45,1.8,2.4,2,0.00,,,-99.99,,2013-01-23 03:39:00,
2013-01-22 19:44:00,60.3,-26.7,30.17,North,0,0.6,1.2,2,0.00,,,-99.99,,2013-01-23 03:44:00,
2013-01-22 19:49:00,60.9,-29.0,30.17,North,0,0.2,0.9,1,0.00,,,-99.99,,2013-01-23 03:49:00,
2013-01-22 19:54:00,59.0,-16.9,30.14,NE,45,1.5,2.1,3,0.00,,,-99.99,,2013-01-23 03:54:00,
2013-01-22 19:59:00,59.2,-16.8,30.14,North,0,1.6,2.1,3,0.00,,,-99.99,,2013-01-23 03:59:00,
2013-01-22 20:04:00,59.2,-12.8,30.14,North,0,2.0,2.4,4,0.00,,,-99.99,,2013-01-23 04:04:00,
2013-01-22 20:09:00,58.3,-13.6,30.14,NE,45,0.8,1.2,4,0.00,,,-99.99,,2013-01-23 04:09:00,
2013-01-22 20:14:00,58.5,-13.0,30.14,North,0,2.1,2.7,4,0.00,,,-99.99,,2013-01-23 04:14:00,
2013-01-22 20:19:00,57.9,-13.5,30.14,North,0,1.4,2.4,4,0.00,,,-99.99,,2013-01-23 04:19:00,
2013-01-22 20:24:00,59.2,-39.3,30.14,NE,45,3.0,4.2,1,0.00,,,-99.99,,2013-01-23 04:24:00,
2013-01-22 20:29:00,59.2,-36.4,30.14,NE,45,1.9,3.0,1,0.00,,,-99.99,,2013-01-23 04:29:00,
2013-01-22 20:34:00,60.5,-50.5,30.14,NE,45,1.5,3.3,0,0.00,,,-99.99,,2013-01-23 04:34:00,
2013-01-22 20:39:00,59.6,-59.6,30.14,NE,45,1.6,2.4,0,0.00,,,-99.99,,2013-01-23 04:39:00,
2013-01-22 20:44:00,59.6,0.0,30.17,NE,45,1.9,3.3,0,0.00,,,-99.99,,2013-01-23 04:44:00,
2013-01-22 20:49:00,60.1,0.0,30.14,NE,45,3.1,6.6,0,0.00,,,-99.99,,2013-01-23 04:49:00,
2013-01-22 20:54:00,60.5,0.0,30.14,NE,45,3.3,5.7,0,0.00,,,-99.99,,2013-01-23 04:54:00,
2013-01-22 20:59:00,61.6,0.0,30.14,NE,45,3.1,4.8,0,0.00,,,-99.99,,2013-01-23 04:59:00,
2013-01-22 21:01:00,61.4,0.0,30.14,NE,45,2.6,9.3,0,0.00,,,-99.99,,2013-01-23 05:01:00,
2013-01-22 21:02:00,59.7,0.0,30.14,NE,45,1.4,2.1,0,0.00,,,-99.99,,2013-01-23 05:02:00,
2013-01-22 21:08:00,59.9,0.0,30.14,NE,45,2.8,4.5,0,0.00,,,-99.99,,2013-01-23 05:08:00,
2013-01-22 21:09:00,61.4,0.0,30.17,NE,45,4.0,6.0,0,0.00,,,-99.99,,2013-01-23 05:09:00,
2013-01-22 21:11:00,60.1,0.0,30.14,NE,45,1.8,2.7,0,0.00,,,-99.99,,2013-01-23 05:11:00,
2013-01-22 21:17:00,61.0,0.0,30.14,NE,45,2.8,4.8,0,0.00,,,-99.99,,2013-01-23 05:17:00,
2013-01-22 21:22:00,61.8,0.0,30.17,NE,45,2.0,2.7,0,0.00,,,-99.99,,2013-01-23 05:22:00,
2013-01-22 21:27:00,60.3,0.0,30.17,NE,45,2.1,3.0,0,0.00,,,-99.99,,2013-01-23 05:27:00,
2013-01-22 21:32:00,60.3,0.0,30.14,NE,45,1.5,2.1,0,0.00,,,-99.99,,2013-01-23 05:32:00,
2013-01-22 21:37:00,59.2,0.0,30.14,NE,45,2.0,5.1,0,0.00,,,-99.99,,2013-01-23 05:37:00,
2013-01-22 21:42:00,59.2,0.0,30.17,NE,45,2.9,4.5,0,0.00,,,-99.99,,2013-01-23 05:42:00,
2013-01-22 21:47:00,59.6,0.0,30.14,NE,45,2.7,4.2,0,0.00,,,-99.99,,2013-01-23 05:47:00,
2013-01-22 21:52:00,60.5,0.0,30.17,NE,45,1.3,1.8,0,0.00,,,-99.99,,2013-01-23 05:52:00,
2013-01-22 21:57:00,60.1,0.0,30.14,NE,45,1.8,4.5,0,0.00,,,-99.99,,2013-01-23 05:57:00,
2013-01-22 22:02:00,60.9,0.0,30.17,North,0,2.2,2.7,0,0.00,,,-99.99,,2013-01-23 06:02:00,
2013-01-22 22:07:00,59.9,0.0,30.17,NE,45,2.6,5.1,0,0.00,,,-99.99,,2013-01-23 06:07:00,
2013-01-22 22:13:00,59.2,0.0,30.14,NE,45,2.9,5.1,0,0.00,,,-99.99,,2013-01-23 06:13:00,
2013-01-22 22:18:00,59.7,0.0,30.20,NE,45,3.3,6.3,0,0.00,,,-99.99,,2013-01-23 06:18:00,
2013-01-22 22:23:00,60.1,0.0,30.14,NE,45,4.0,6.3,0,0.00,,,-99.99,,2013-01-23 06:23:00,
2013-01-22 22:28:00,61.4,0.0,30.14,NE,45,3.7,5.4,0,0.00,,,-99.99,,2013-01-23 06:28:00,
2013-01-22 22:33:00,61.4,0.0,30.17,NE,45,3.0,4.5,0,0.00,,,-99.99,,2013-01-23 06:33:00,
2013-01-22 22:38:00,60.5,0.0,30.14,NE,45,3.1,5.4,0,0.00,,,-99.99,,2013-01-23 06:38:00,
2013-01-22 22:43:00,59.7,0.0,30.14,NE,45,2.8,4.2,0,0.00,,,-99.99,,2013-01-23 06:43:00,
2013-01-22 22:48:00,61.0,0.0,30.14,NE,45,1.8,2.7,0,0.00,,,-99.99,,2013-01-23 06:48:00,
2013-01-22 22:53:00,60.7,0.0,30.14,NE,45,2.6,4.8,0,0.00,,,-99.99,,2013-01-23 06:53:00,
2013-01-22 22:58:00,59.4,0.0,30.17,NE,45,2.8,4.5,0,0.00,,,-99.99,,2013-01-23 06:58:00,
2013-01-22 23:03:00,60.3,0.0,30.17,NE,45,2.9,4.2,0,0.00,,,-99.99,,2013-01-23 07:03:00,
2013-01-22 23:08:00,60.1,0.0,30.14,NE,45,1.4,2.4,0,0.00,,,-99.99,,2013-01-23 07:08:00,
2013-01-22 23:13:00,59.2,0.0,30.14,NE,45,3.0,5.1,0,0.00,,,-99.99,,2013-01-23 07:13:00,
2013-01-22 23:18:00,58.8,0.0,30.14,NE,45,1.2,1.8,0,0.00,,,-99.99,,2013-01-23 07:18:00,
2013-01-22 23:23:00,59.7,0.0,30.14,NE,45,2.6,4.5,0,0.00,,,-99.99,,2013-01-23 07:23:00,
2013-01-22 23:28:00,58.6,0.0,30.14,East,90,0.7,1.5,0,0.00,,,-99.99,,2013-01-23 07:28:00,
2013-01-22 23:33:00,58.6,0.0,30.14,East,90,1.5,2.1,0,0.00,,,-99.99,,2013-01-23 07:33:00,
2013-01-22 23:38:00,59.7,0.0,30.14,NE,45,1.4,2.4,0,0.00,,,-99.99,,2013-01-23 07:38:00,
2013-01-22 23:43:00,59.0,0.0,30.14,NE,45,1.0,1.5,0,0.00,,,-99.99,,2013-01-23 07:43:00,
2013-01-22 23:48:00,59.2,-52.4,30.14,NE,45,1.5,2.1,0,0.00,,,-99.99,,2013-01-23 07:48:00,
2013-01-22 23:53:00,58.1,-38.9,30.14,NE,45,1.1,1.8,1,0.00,,,-99.99,,2013-01-23 07:53:00,
2013-01-22 23:58:00,57.3,0.0,30.11,East,90,1.5,2.4,0,0.00,,,-99.99,,2013-01-23 07:58:00,